{"data":{"norad_id":68092,"intl_designator":"2026-042Z","name":"STARLINK-36896","alt_names":[],"object_type":"PAYLOAD","status":"ACTIVE","operator":null,"country":"US","launch_date":"2026-03-04","launch_site_code":"AFETR","launch_vehicle":null,"mission":null,"orbit_class":"UNKNOWN","rcs_meters":null,"size_class":null,"mass_kg":null,"dimensions":null,"purposes":["comms"],"wikipedia_slug":null,"has_3d_model":false,"image_url":null,"decayed_at":null,"tle_current":{"epoch":"2026-05-25T02:35:05.565120Z","epoch_age_seconds":62419,"freshness":"FRESH","line1":"1 68092U 26042Z   26145.10770330  .00019849  00000+0  59699-3 0  9999","line2":"2 68092  53.1591 183.1630 0001403  87.7921 272.3242 15.34402004 14005","mean_motion":15.34402004,"eccentricity":0.0001403,"inclination_deg":53.1591,"raan_deg":183.163,"arg_perigee_deg":87.7921,"mean_anomaly_deg":272.3242,"bstar":0.00059699,"rev_number":1400,"period_min":93.847635511821,"perigee_km":461.73751485323,"apogee_km":463.6570529533,"semimajor_km":6840.8342839033,"source":"CELESTRAK","updated_at":"2026-05-25T13:38:21.839086Z"}}}